Location: Newark
(50.8385°N, 4.3762°E)
Time: 20:27:00
(UTC+00:00)

OTV 5 (USA 277) - Visible Passes

Search period start: 14 October 2019 00:00
Search period end: 24 October 2019 00:00
Orbit: 310 x 324 km, 54.5° (Epoch: 08 October)

Date Brightness Start Highest point End Pass type
(mag) Time Alt. Az. Time Alt. Az. Time Alt. Az.
14 Oct ? 03:38:55 22° NE 03:38:55 22° NE 03:40:15 10° ENE visible
14 Oct ? 05:09:48 12° WNW 05:12:15 69° NNE 05:14:59 10° ESE visible
15 Oct ? 03:53:05 32° NE 03:53:05 32° NE 03:55:00 10° E visible
15 Oct ? 05:24:04 10° WNW 05:26:49 63° SSW 05:29:31 10° SE visible
16 Oct ? 04:07:19 51° NE 04:07:19 51° NE 04:09:45 10° E visible
17 Oct ? 04:21:38 88° W 04:21:39 89° SSW 04:24:24 10° ESE visible
18 Oct ? 04:36:01 43° SW 04:36:10 44° SSW 04:38:48 10° SE visible
19 Oct ? 04:50:31 21° SW 04:50:34 21° SW 04:52:45 10° SSE visible
20 Oct ? 05:05:08 10° SW 05:05:08 10° SW 05:05:24 10° SW visible
